Wakefield, VA

11:14 AM EDT on August 29, 2016 (GMT -0400)
Wakefield Municipal

Weather History for KAKQ - May, 2014

Change the Weather History Date:

Tuesday, May 13, 2014

  Actual Average (KJGG) Record (KJGG)
Temperature  
Mean Temperature 80 °F -  
Max Temperature 93 °F 78 °F 96 °F (2014)
Min Temperature 70 °F 54 °F 38 °F (1963)
Cooling Degree Days 16    
Growing Degree Days 30 (Base 50)    
Moisture  
Dew Point 66 °F    
Average Humidity 66    
Maximum Humidity 87    
Minimum Humidity 38    
Precipitation  
Precipitation 0.00 in - - ()
Sea Level Pressure  
Sea Level Pressure 30.09 in    
Wind  
Wind Speed 3 mph (SSW)    
Max Wind Speed 8 mph    
Max Gust Speed -    
Visibility 9 miles    
Events      
Averages and records for this station are not official NWS values.
T = Trace of Precipitation, MM = Missing Value Source: NWS Daily Summary

Daily Weather History Graph

Daily Weather History Graph

Search for Another Location

Airport or City:

Trip Planner

Search our weather history database for the weather conditions in past years. The results will help you decide how hot, cold, wet, or windy it might be!

Date:

Astronomy

May. 13, 2014 Rise Set
Actual Time 6:01 AM EDT 8:07 PM EDT
Civil Twilight 5:32 AM EDT 8:36 PM EDT
Nautical Twilight 4:57 AM EDT 9:11 PM EDT
Astronomical Twilight 4:19 AM EDT 9:49 PM EDT
Moon 7:08 PM EDT (5/13) 5:14 AM EDT (5/13)
Length of Visible Light 15h 03m
Length of Day
14h 05m
Waxing Gibbous, 98% of the Moon is Illuminated
May 13
Waxing Gibbous
May 14
Full
May 21
Last Quarter
May 28
New
Jun 5
First Quarter

Hourly Weather History & Observations

Time (EDT) Temp. Heat Index Dew Point Humidity Pressure Visibility Wind Dir Wind Speed Gust Speed Precip Events Conditions
12:54 AM 73.0 °F - 64.9 °F 76% 30.10 in 10.0 mi Variable 3.5 mph - N/A   Clear
2:54 AM 71.1 °F - 66.0 °F 84% 30.07 in 10.0 mi SSW 3.5 mph - N/A   Clear
3:54 AM 71.1 °F - 66.0 °F 84% 30.09 in 8.0 mi Calm Calm - N/A   Clear
4:54 AM 70.0 °F - 66.0 °F 87% 30.09 in 7.0 mi SSW 3.5 mph - N/A   Clear
5:54 AM 70.0 °F - 66.0 °F 87% 30.10 in 7.0 mi SSW 3.5 mph - N/A   Clear
6:54 AM 70.0 °F - 66.0 °F 87% 30.11 in 6.0 mi SSW 4.6 mph - N/A   Clear
7:54 AM 73.9 °F - 66.9 °F 79% 30.11 in 8.0 mi SW 4.6 mph - N/A   Clear
9:54 AM 82.9 °F 85.0 °F 66.0 °F 56% 30.13 in 10.0 mi West 6.9 mph - N/A   Clear
10:54 AM 87.1 °F 89.9 °F 66.9 °F 51% 30.12 in 10.0 mi West 8.1 mph - N/A   Clear
12:54 PM 89.1 °F 91.0 °F 64.9 °F 45% 30.10 in 10.0 mi SSE 4.6 mph - N/A   Clear
1:54 PM 90.0 °F 92.4 °F 66.0 °F 45% 30.09 in 10.0 mi SSW 3.5 mph - N/A   Clear
2:54 PM 91.9 °F 93.3 °F 64.0 °F 39% 30.08 in 10.0 mi Calm Calm - N/A   Partly Cloudy
3:54 PM 91.0 °F 92.6 °F 64.0 °F 41% 30.07 in 10.0 mi South 4.6 mph - N/A   Clear
4:54 PM 91.9 °F 92.9 °F 63.0 °F 38% 30.06 in 10.0 mi Variable 4.6 mph - N/A   Clear
5:54 PM 91.0 °F 91.9 °F 63.0 °F 39% 30.06 in 10.0 mi South 5.8 mph - N/A   Clear
6:54 PM 90.0 °F 91.3 °F 64.0 °F 42% 30.06 in 10.0 mi South 3.5 mph - N/A   Clear
7:54 PM 80.1 °F 83.2 °F 70.0 °F 71% 30.08 in 10.0 mi Calm Calm - N/A   Clear
8:54 PM 75.9 °F - 69.1 °F 79% 30.09 in 10.0 mi Calm Calm - N/A   Clear
9:54 PM 73.0 °F - 68.0 °F 84% 30.10 in 10.0 mi Calm Calm - N/A   Clear
10:54 PM 73.0 °F - 68.0 °F 84% 30.12 in 9.0 mi Calm Calm - N/A   Clear
11:54 PM 70.0 °F - 66.0 °F 87% 30.14 in 6.0 mi Calm Calm - N/A   Clear